Location: Cluj-Napoca
(46.7712°N, 23.6236°E)
Time: 20:41:00
(UTC+02:00)

BUGSAT 1 - Visible Passes

Search period start: 07 December 2021 00:00
Search period end: 17 December 2021 00:00
Orbit: 558 x 600 km, 98.1° (Epoch: 06 December)

Date Brightness Start Highest point End Pass type
(mag) Time Alt. Az. Time Alt. Az. Time Alt. Az.
07 Dec ? 04:19:51 10° ENE 04:21:58 13° E 04:24:04 10° ESE visible
07 Dec ? 05:53:26 10° N 05:57:39 65° WNW 06:01:50 10° SSW visible
08 Dec ? 04:24:16 10° NE 04:26:44 15° E 04:29:10 10° SE visible
08 Dec ? 05:58:11 10° N 06:02:21 58° WNW 06:06:30 10° SSW visible
09 Dec ? 04:28:45 10° NE 04:31:30 17° E 04:34:13 10° SE visible
09 Dec ? 06:02:55 10° N 06:07:03 52° WNW 06:11:09 10° SSW visible
10 Dec ? 04:33:16 10° NE 04:36:14 18° E 04:39:12 10° SE visible
10 Dec ? 06:07:40 10° N 06:11:45 47° WNW 06:15:47 10° SW visible
11 Dec ? 04:37:49 10° NE 04:41:00 20° E 04:44:08 10° SE visible
11 Dec ? 06:12:25 10° N 06:16:26 42° WNW 06:20:24 10° SW visible
12 Dec ? 04:42:23 10° NE 04:45:44 22° E 04:49:03 10° SE visible
12 Dec ? 06:17:10 10° N 06:21:07 38° WNW 06:25:01 10° SW visible
12 Dec ? 17:08:45 10° SSW 17:12:33 36° W 17:16:26 10° NNW visible
13 Dec ? 04:46:57 10° NE 04:50:28 25° E 04:53:57 10° SSE visible
13 Dec ? 06:21:56 10° N 06:25:47 34° WNW 06:29:36 10° SW visible
13 Dec ? 17:13:34 10° SSW 17:17:17 32° W 17:21:04 10° NNW visible
14 Dec ? 04:51:34 10° NE 04:55:12 27° E 04:58:48 10° SSE visible
14 Dec ? 06:26:42 10° N 06:30:27 31° WNW 06:34:11 10° SW visible
14 Dec ? 17:18:23 10° SSW 17:22:00 29° W 17:25:42 10° NW visible
15 Dec ? 04:56:10 10° NE 04:59:56 30° E 05:03:39 10° SSE visible
15 Dec ? 06:31:29 10° N 06:35:07 28° WNW 06:38:44 10° SW visible
15 Dec ? 17:23:13 10° SSW 17:26:44 26° W 17:30:18 10° NW visible
16 Dec ? 05:00:47 10° NNE 05:04:39 33° E 05:08:28 10° SSE visible
16 Dec ? 06:36:16 10° N 06:39:47 26° WNW 06:43:16 10° WSW visible
16 Dec ? 17:28:05 10° SSW 17:31:27 24° W 17:34:53 10° NW visible
